Weather History for KMYP - November, 2012

Change the Weather History Date:

Monday, November 19, 2012

  Actual Average Record
Temperature  
Mean Temperature 26 °F -  
Max Temperature 32 °F - - ()
Min Temperature 19 °F - - ()
Degree Days  
Heating Degree Days 40    
Moisture  
Dew Point 17 °F    
Average Humidity 72    
Maximum Humidity 93    
Minimum Humidity 48    
Precipitation  
Precipitation 0.00 in - - ()
Sea Level Pressure  
Sea Level Pressure 30.50 in    
Wind  
Wind Speed 26 mph (WSW)    
Max Wind Speed 34 mph    
Max Gust Speed 40 mph    
T = Trace of Precipitation, MM = Missing Value Source: NWS Daily Summary

Daily Weather History Graph

Daily Weather History Graph

Search for Another Location

Airport or City:

Trip Planner

Search our weather history database for the weather conditions in past years. The results will help you decide how hot, cold, wet, or windy it might be!

Date:

Astronomy

Nov. 19, 2012 Rise Set
Actual Time 6:51 AM MST 4:49 PM MST
Civil Twilight 6:23 AM MST 5:17 PM MST
Nautical Twilight 5:51 AM MST 5:50 PM MST
Astronomical Twilight 5:19 AM MST 6:21 PM MST
Moon 11:58 AM MST (11/19) 11:17 PM MST (11/19)
Length of Visible Light 10h 54m
Length of Day
9h 57m
Waxing Crescent, 41% of the Moon is Illuminated
Nov 19
Waxing Crescent
Nov 20
First Quarter
Nov 28
Full
Dec 6
Last Quarter
Dec 13
New

Hourly Weather History & Observations

Time (MST) Temp. Windchill Dew Point Humidity Pressure Visibility Wind Dir Wind Speed Gust Speed Precip Events Conditions
12:15 AM 21.2 °F - 19.4 °F 93% 30.43 in - North - - N/A   Unknown
12:35 AM 21.2 °F - 19.4 °F 93% 30.43 in - North - - N/A   Unknown
12:55 AM 21.2 °F - 19.4 °F 93% 30.42 in - North - - N/A   Mostly Cloudy
1:15 AM 21.2 °F - 19.4 °F 93% 30.42 in - North - - N/A   Unknown
1:35 AM 21.2 °F - 17.6 °F 86% 30.42 in - North - - N/A   Unknown
1:55 AM 21.2 °F - 17.6 °F 86% 30.42 in - North - - N/A   Unknown
2:15 AM 21.2 °F - 17.6 °F 86% 30.41 in - North - - N/A   Unknown
2:35 AM 21.2 °F - 17.6 °F 86% 30.42 in - North - - N/A   Unknown
2:55 AM 21.2 °F - 17.6 °F 86% 30.43 in - North - - N/A   Overcast
3:15 AM 21.2 °F - 17.6 °F 86% 30.43 in - North - - N/A   Unknown
3:35 AM 21.2 °F - 19.4 °F 93% 30.44 in - North - - N/A   Overcast
3:55 AM 21.2 °F - 19.4 °F 93% 30.43 in - North - - N/A   Unknown
4:15 AM 21.2 °F - 19.4 °F 93% 30.43 in - North - - N/A   Unknown
4:35 AM 21.2 °F - 19.4 °F 93% 30.42 in - North - - N/A   Unknown
4:55 AM 19.4 °F - 17.6 °F 93% 30.43 in - North - - N/A   Unknown
5:15 AM 21.2 °F - 19.4 °F 93% 30.44 in - North - - N/A   Unknown
5:35 AM 21.2 °F - 17.6 °F 86% 30.44 in - North - - N/A   Unknown
5:55 AM 21.2 °F - 17.6 °F 86% 30.45 in - North - - N/A   Unknown
6:35 AM 21.2 °F - 17.6 °F 86% 30.45 in - North - - N/A   Unknown
6:55 AM 21.2 °F - 17.6 °F 86% 30.46 in - North - - N/A   Unknown
7:15 AM 21.2 °F - 17.6 °F 86% 30.46 in - North - - N/A   Unknown
7:35 AM 21.2 °F - 17.6 °F 86% 30.47 in - North - - N/A   Unknown
7:55 AM 21.2 °F 3.0 °F 17.6 °F 86% 30.48 in - West 29.9 mph - N/A   Unknown
8:15 AM 21.2 °F 3.0 °F 17.6 °F 86% 30.48 in - West 29.9 mph - N/A   Unknown
8:35 AM 21.2 °F 3.0 °F 17.6 °F 86% 30.49 in - West 29.9 mph 36.8 mph N/A   Unknown
8:55 AM 23.0 °F 4.6 °F 19.4 °F 86% 30.49 in - West 33.4 mph - N/A   Unknown
9:15 AM 23.0 °F 4.4 °F 19.4 °F 86% 30.49 in - West 34.5 mph - N/A   Unknown
9:35 AM 23.0 °F 5.7 °F 19.4 °F 86% 30.51 in - West 28.8 mph 35.7 mph N/A   Unknown
9:55 AM 23.0 °F 5.4 °F 19.4 °F 86% 30.51 in - West 29.9 mph 34.5 mph N/A   Unknown
10:15 AM 26.6 °F 11.4 °F 21.2 °F 80% 30.52 in - West 25.3 mph 33.4 mph N/A   Scattered Clouds
10:35 AM 26.6 °F 10.8 °F 19.4 °F 74% 30.52 in - WSW 27.6 mph 34.5 mph N/A   Clear
10:55 AM 26.6 °F 11.1 °F 19.4 °F 74% 30.53 in - WSW 26.5 mph 34.5 mph N/A   Clear
11:15 AM 28.4 °F 13.3 °F 19.4 °F 69% 30.52 in - WSW 27.6 mph 33.4 mph N/A   Clear
11:35 AM 30.2 °F 15.7 °F 19.4 °F 64% 30.52 in - SW 27.6 mph 36.8 mph N/A   Clear
11:55 AM 30.2 °F 15.9 °F 17.6 °F 60% 30.51 in - SW 26.5 mph 33.4 mph N/A   Clear
12:13 PM 30.2 °F 16.5 °F 19.4 °F 64% 30.51 in - WSW 24.2 mph 33.4 mph N/A   Clear
12:35 PM 32.0 °F 18.6 °F 17.6 °F 55% 30.51 in - SW 25.3 mph 31.1 mph N/A   Clear
12:55 PM 32.0 °F 20.5 °F 17.6 °F 55% 30.52 in - WSW 18.4 mph 32.2 mph N/A   Clear
1:15 PM 32.0 °F 19.8 °F 14.0 °F 48% 30.51 in - WSW 20.7 mph 32.2 mph N/A   Clear
1:35 PM 32.0 °F 18.6 °F 14.0 °F 48% 30.51 in - West 25.3 mph 32.2 mph N/A   Clear
1:55 PM 32.0 °F 19.2 °F 14.0 °F 48% 30.51 in - West 23.0 mph 32.2 mph N/A   Clear
2:15 PM 32.0 °F 18.6 °F 15.8 °F 51% 30.50 in - West 25.3 mph 32.2 mph N/A   Clear
2:35 PM 32.0 °F 17.0 °F 14.0 °F 48% 30.49 in - West 33.4 mph 39.1 mph N/A   Clear
2:55 PM 32.0 °F 16.7 °F 14.0 °F 48% 30.50 in - West 34.5 mph 40.3 mph N/A   Clear
3:15 PM 32.0 °F 17.6 °F 14.0 °F 48% 30.51 in - WSW 29.9 mph 38.0 mph N/A   Scattered Clouds
3:35 PM 32.0 °F 18.6 °F 14.0 °F 48% 30.52 in - West 25.3 mph 29.9 mph N/A   Clear
3:55 PM 30.2 °F 17.8 °F 14.0 °F 51% 30.53 in - WSW 19.6 mph - N/A   Clear
4:15 PM 30.2 °F 16.8 °F 14.0 °F 51% 30.53 in - SW 23.0 mph 27.6 mph N/A   Clear
4:35 PM 28.4 °F 15.8 °F 14.0 °F 55% 30.53 in - SW 18.4 mph 29.9 mph N/A   Clear
4:55 PM 28.4 °F 15.4 °F 14.0 °F 55% 30.53 in - WSW 19.6 mph - N/A   Clear
5:15 PM 28.4 °F 16.6 °F 14.0 °F 55% 30.54 in - WSW 16.1 mph - N/A   Clear
5:35 PM 28.4 °F 15.8 °F 14.0 °F 55% 30.55 in - WSW 18.4 mph - N/A   Clear
5:55 PM 26.6 °F 13.4 °F 14.0 °F 59% 30.56 in - WSW 18.4 mph - N/A   Clear
6:15 PM 26.6 °F 13.4 °F 14.0 °F 59% 30.56 in - WSW 18.4 mph - N/A   Clear
6:35 PM 26.6 °F 13.1 °F 14.0 °F 59% 30.55 in - WSW 19.6 mph - N/A   Clear
6:55 PM 26.6 °F 13.1 °F 14.0 °F 59% 30.55 in - WSW 19.6 mph - N/A   Clear
7:15 PM 26.6 °F 12.0 °F 14.0 °F 59% 30.55 in - WSW 23.0 mph - N/A   Clear
7:35 PM 26.6 °F 12.7 °F 14.0 °F 59% 30.55 in - WSW 20.7 mph - N/A   Clear
8:15 PM 24.8 °F 11.1 °F 12.2 °F 59% 30.56 in - SW 18.4 mph - N/A   Clear
8:35 PM 24.8 °F 10.0 °F 14.0 °F 64% 30.56 in - SW 21.9 mph - N/A   Clear
8:55 PM 26.6 °F 11.4 °F 15.8 °F 64% 30.56 in - WSW 25.3 mph - N/A   Clear
9:15 PM 26.6 °F 12.4 °F 15.8 °F 64% 30.56 in - WSW 21.9 mph - N/A   Clear
9:35 PM 26.6 °F 11.7 °F 15.8 °F 64% 30.56 in - WSW 24.2 mph - N/A   Clear
9:55 PM 24.8 °F 10.0 °F 15.8 °F 69% 30.56 in - WSW 21.9 mph - N/A   Clear
10:15 PM 24.8 °F 9.3 °F 15.8 °F 69% 30.56 in - WSW 24.2 mph - N/A   Clear
10:35 PM 24.8 °F 9.0 °F 15.8 °F 69% 30.56 in - WSW 25.3 mph 28.8 mph N/A   Clear
10:55 PM 24.8 °F 8.4 °F 17.6 °F 74% 30.55 in - WSW 27.6 mph 32.2 mph N/A   Clear
11:15 PM 24.8 °F 8.7 °F 17.6 °F 74% 30.55 in - WSW 26.5 mph - N/A   Clear
11:35 PM 23.0 °F 6.3 °F 17.6 °F 80% 30.56 in - WSW 26.5 mph - N/A   Clear
11:55 PM 23.0 °F 6.9 °F 17.6 °F 80% 30.56 in - WSW 24.2 mph 28.8 mph N/A   Clear